Caldwell, NJ

5:50 PM EST on November 15, 2019 (GMT -0500)
Essex County

Weather History for KCDW - September, 2019

Change the Weather History Date:

Wednesday, September 18, 2019

  Actual Average Record
Temperature  
Mean Temperature 63 °F -  
Max Temperature 73 °F 75 °F 92 °F (1991)
Min Temperature 54 °F 52 °F 36 °F (1959)
Degree Days  
Heating Degree Days 2    
Growing Degree Days 13 (Base 50)    
Moisture  
Dew Point 48 °F    
Average Humidity 63    
Maximum Humidity 77    
Minimum Humidity 42    
Precipitation  
Precipitation 0.00 in - - ()
Sea Level Pressure  
Sea Level Pressure 30.26 in    
Wind  
Wind Speed 3 mph ()    
Max Wind Speed 10 mph    
Max Gust Speed -    
Visibility 10.0 miles    
Events      
Averages and records for this station are not official NWS values.
T = Trace of Precipitation, MM = Missing Value Source: Averaged Metar Reports

Daily Weather History Graph

Daily Weather History Graph

Search for Another Location

Airport or City:

Astronomy

Sep. 18, 2019 Rise Set
Actual Time 6:40 AM EDT 7:01 PM EDT
Civil Twilight 6:12 AM EDT 7:28 PM EDT
Nautical Twilight 5:40 AM EDT 8:01 PM EDT
Astronomical Twilight 5:07 AM EDT 8:34 PM EDT
Moon 9:32 PM EDT (9/18) 10:42 AM EDT (9/18)
Length of Visible Light 13h 15m
Length of Day
12h 21m
Waning Gibbous, 82% of the Moon is Illuminated
Sep 18
Waning Gibbous
Sep 21
Last Quarter
Sep 28
New
Oct 5
First Quarter
Oct 13
Full

Hourly Weather History & Observations

Time (EDT) Temp. Dew Point Humidity Pressure Visibility Wind Dir Wind Speed Gust Speed Precip Events Conditions
12:53 AM 55.9 °F 46.9 °F 72% 30.19 in 10.0 mi ENE 3.5 mph - N/A   Clear
1:53 AM 55.0 °F 48.0 °F 77% 30.20 in 10.0 mi Calm Calm - N/A   Clear
2:53 AM 55.0 °F 46.9 °F 74% 30.20 in 10.0 mi Calm Calm - N/A   Clear
3:53 AM 54.0 °F 46.0 °F 75% 30.21 in 10.0 mi Calm Calm - N/A   Clear
4:53 AM 55.0 °F 48.0 °F 77% 30.20 in 10.0 mi NE 4.6 mph - N/A   Clear
5:51 AM 55.4 °F 48.2 °F 77% 30.21 in 10.0 mi Calm Calm - N/A   Mostly Cloudy
5:53 AM 55.9 °F 48.9 °F 77% 30.22 in 10.0 mi NE 3.5 mph - N/A   Mostly Cloudy
6:04 AM 55.9 °F 48.9 °F 77% 30.21 in 10.0 mi NNE 3.5 mph - N/A   Mostly Cloudy
6:53 AM 55.0 °F 48.0 °F 77% 30.25 in 10.0 mi Variable 3.5 mph - N/A   Partly Cloudy
7:53 AM 57.0 °F 48.9 °F 74% 30.27 in 10.0 mi NE 4.6 mph - N/A   Clear
8:53 AM 61.0 °F 51.1 °F 70% 30.27 in 10.0 mi Variable 4.6 mph - N/A   Mostly Cloudy
9:53 AM 63.0 °F 48.9 °F 60% 30.28 in 10.0 mi ENE 5.8 mph - N/A   Scattered Clouds
10:53 AM 66.0 °F 50.0 °F 56% 30.28 in 10.0 mi NE 8.1 mph - N/A   Mostly Cloudy
11:53 AM 68.0 °F 50.0 °F 52% 30.27 in 10.0 mi ENE 9.2 mph - N/A   Clear
1:53 PM 71.1 °F 46.9 °F 42% 30.25 in 10.0 mi Variable 5.8 mph - N/A   Partly Cloudy
2:53 PM 72.0 °F 48.0 °F 43% 30.24 in 10.0 mi Variable 5.8 mph - N/A   Scattered Clouds
3:53 PM 70.0 °F 46.0 °F 42% 30.26 in 10.0 mi ENE 8.1 mph - N/A   Scattered Clouds
4:53 PM 71.1 °F 50.0 °F 47% 30.25 in 10.0 mi East 10.4 mph - N/A   Partly Cloudy
5:53 PM 70.0 °F 48.0 °F 46% 30.26 in 10.0 mi East 9.2 mph - N/A   Clear
6:53 PM 66.0 °F 46.9 °F 50% 30.26 in 10.0 mi SE 8.1 mph - N/A   Clear
7:53 PM 62.1 °F 46.9 °F 58% 30.29 in 10.0 mi ESE 5.8 mph - N/A   Clear
8:53 PM 61.0 °F 46.9 °F 60% 30.31 in 10.0 mi ENE 3.5 mph - N/A   Clear
9:53 PM 60.1 °F 46.0 °F 60% 30.33 in 10.0 mi ENE 3.5 mph - N/A   Clear
10:53 PM 57.9 °F 44.1 °F 60% 30.34 in 10.0 mi Calm Calm - N/A   Clear
11:53 PM 55.0 °F 46.0 °F 72% 30.34 in 10.0 mi Calm Calm - N/A   Clear